Location: ???????
(60.4260°N, 46.9069°E)
Time: 05:18:41
(UTC+00:00)

NOSS 0 Rocket - Pass Details

Date: 30 March 2020
Orbit: 937 x 953 km, 70.0° (Epoch: 05 June)

Event Time Altitude Azimuth Distance (km) Brightness Sun altitude
Rises 00:37:04 0° 319° (NW) 3,614 6.9 -12.9°
Reaches altitude 10° 00:39:42 10° 313° (NW) 2,665 6.1 -12.6°
Maximum altitude 00:45:30 45° 243° (WSW) 1,265 4.2 -12.0°
Drops below altitude 10° 00:51:17 10° 173° (S) 2,648 6.1 -11.4°
Sets 00:53:53 0° 168° (SSE) 3,588 6.8 -11.1°
